Location: Asheville, NC
(35.6000°N, 82.5500°W)
Time: 03:31:23
(UTC-04:00)

BEESAT 3 - Pass Details

Date: 17 March 2018
Orbit: 499 x 517 km, 64.9° (Epoch: 17 June)

Event Time Altitude Azimuth Distance (km) Brightness Sun altitude
Rises 20:37:38 0° 261° (W) 2,623 ? -12.6°
Reaches altitude 10° 20:41:51 10° 305° (NW) 1,745 ? -13.5°
Maximum altitude 20:42:25 10° 314° (NW) 1,730 ? -13.6°
Drops below altitude 10° 20:42:59 10° 322° (NW) 1,747 ? -13.7°
Sets 20:47:14 0° 7° (N) 2,640 ? -14.5°
